Zurück zum Katalog

STARLINK-36586

AktivKommunikationSSO
NORAD 67548·PAYLOAD·🇺🇸 United States

Gestartet Jan 22, 2026 von Vandenberg Space Force Base

Loading…

Nächste Überflüge (nächste 24 Stunden)

TLE

AktuellSource: CelesTrak SupGP

Epoche: Sep 15, 2026, 02:46 UTC

1 67548C 26014S   26258.11576389  .00083028  00000+0  25767-2 0  2583
2 67548  97.2847 143.6209 0001713  96.1677  30.7637 15.33404946    18

Verfolge STARLINK-36586 in Echtzeit mit AllMySat

Download on the App Store